Список аэропортов
Фактическая погода:

09 декабря, 17:50
Температура: +7°C (+2.2*)
Ветер: западный 10 м/с
Давление: *754 мм
неб. облачность
900 м
слаб. ливневый дождь
Время (МСК)Темп. СВетерВлажностьДавлениеОблачностьОсадки
15:00+8ЮЗ, 7 м/с56%1005 гПас прояснениями
16:00+8ЮЗ, 6 м/с55%1005 гПаоблачно
17:00+8ЮЗ, 5 м/с54%1005 гПас прояснениями
18:00+8ЮЗ, 4 м/с56%1005 гПаоблачно
19:00+8ЮЗ, 6 м/с57%1005 гПаоблачно
20:00+7ЮЗ, 5 м/с64%1006 гПаоблачно
21:00+6ЮЗ, 3 м/с72%1006 гПамалооблачно
22:00+5ЮЗ, 3 м/с77%1007 гПаоблачнодождь
23:00+5З, 7 м/с85%1008 гПаоблачнодождь
10 декабря
00:00+5З, 5 м/с86%1010 гПаоблачносл. дождь
01:00+5З, 5 м/с84%1011 гПаоблачносл. дождь
02:00+5З, 5 м/с82%1012 гПаоблачнодождь
03:00+5З, 5 м/с83%1013 гПаоблачнодождь
04:00+5З, 5 м/с86%1014 гПаоблачносл. дождь
05:00+5СЗ, 6 м/с84%1016 гПаоблачнодождь
06:00+4СЗ, 7 м/с83%1017 гПаоблачнодождь
07:00+3СЗ, 7 м/с83%1019 гПаоблачносл. дождь
08:00+3СЗ, 7 м/с74%1021 гПаоблачно
09:00+3СЗ, 5 м/с71%1022 гПаоблачно
10:00+3СЗ, 5 м/с66%1023 гПаоблачно
11:00+3З, 5 м/с64%1024 гПаоблачно
12:00+3З, 6 м/с63%1025 гПаоблачно
13:00+4З, 6 м/с65%1025 гПас прояснениями
14:00+4СЗ, 5 м/с64%1025 гПас прояснениями
15:00+4З, 4 м/с61%1025 гПамалооблачно
16:00+4З, 5 м/с57%1026 гПаоблачно
17:00+4З, 4 м/с56%1026 гПаоблачно
18:00+3З, 4 м/с52%1026 гПаоблачно
19:00+2З, 2 м/с59%1026 гПас прояснениями
20:00+2ЮЗ, 1 м/с63%1026 гПаоблачно
21:00+1Ю, 2 м/с67%1025 гПамалооблачно
22:000Ю, 1 м/с70%1025 гПаясно
23:00-1ЮВ, 1 м/с73%1025 гПаясно
11 декабря
00:00-1ЮВ, 2 м/с74%1024 гПаясно
01:00-1ЮВ, 2 м/с79%1024 гПаясно
02:00-2ЮВ, 1 м/с79%1024 гПамалооблачно
03:00-2ЮВ, 2 м/с81%1023 гПаясно
04:00-2ЮВ, 2 м/с82%1022 гПаясно
05:00-2ЮВ, 3 м/с81%1021 гПаясно
06:00-2ЮВ, 3 м/с78%1020 гПаясно
07:00-2ЮВ, 3 м/с74%1019 гПаясно
08:00-2ЮВ, 2 м/с74%1019 гПамалооблачно
09:00-3ЮВ, 1 м/с74%1018 гПаоблачно
10:00-3В, 1 м/с74%1018 гПаоблачно
11:00-2В, 1 м/с72%1017 гПаоблачно
12:00-2В, 1 м/с66%1017 гПаоблачно
13:00-0В, 2 м/с59%1016 гПаоблачно
14:00+2ЮВ, 2 м/с55%1014 гПаоблачно
15:00+3В, 1 м/с55%1014 гПаоблачно